Skip Page Navigation
NASA JPL Caltech
NASA Logo - Jet Propulsion Laboratory + View the NASA Portal
+ Center for Near-Earth Object Studies
JPL Home Earth Solar System Stars & Galaxies Technology
JPL Solar System Dynamics
BODIES ORBITS EPHEMERIDES TOOLS PHYSICAL DATA DISCOVERY FAQ SITE MAP
JPL Small-Body Database Browser
Search: [ help ]  
385936 (2006 UF104)
Classification: Main-belt Asteroid          SPK-ID: 2385936
Ephemeris | Orbit Diagram | Orbital Elements | Mission Design | Physical Parameters | Discovery Circumstances ]

[ show orbit diagram ]
Orbital Elements at Epoch 2459200.5 (2020-Dec-17.0) TDB
Reference: JPL 9 (heliocentric ecliptic J2000)
 Element Value Uncertainty (1-sigma)   Units 
e .06214518293508664 1.3518e-07  
a 2.204381131769029 1.6798e-08 au
q 2.067389463076589 2.9713e-07 au
i 2.059786009664721 5.8457e-06 deg
node 108.9568376835344 0.00041202 deg
peri 276.4874848217869 0.00042767 deg
M 131.4925623395526 0.00010054 deg
tp 2458763.856356680828
(2019-Oct-07.35635668)
0.00033576 TDB
period 1195.441847037603
3.27
1.3664e-05
3.741e-08
d
yr
n .3011438832362341 3.4422e-09 deg/d
Q 2.341372800461469 1.7842e-08 au
  Orbit Determination Parameters
   # obs. used (total)      85  
   data-arc span      6219 days (17.03 yr)  
   first obs. used      2004-02-26  
   last obs. used      2021-03-07  
   planetary ephem.      DE441  
   SB-pert. ephem.      SB441-N16  
   condition code      0  
   norm. resid. RMS      .49283  
   source      ORB  
   producer      Otto Matic  
   solution date      2021-Apr-14 11:07:10  

Additional Information
 Earth MOID = 1.07062 au 
 Jupiter MOID = 2.88008 au 
 T_jup = 3.659 
[ show covariance matrix ]

Ephemeris | Orbit Diagram | Orbital Elements | Mission Design | Physical Parameters | Discovery Circumstances ]

Physical Parameter Table
Parameter Symbol Value Units Sigma Reference Notes
absolute magnitude H 18.45   n/a MPCxxxxx  

385936 (2006 UF104)          Discovered 2006-Oct-18 by Spacewatch at Kitt Peak
Reference: Last Updated: 2014-02-19

Alternate Designations
 2006 UF104 = 2004 DU66 
Ephemeris | Orbit Diagram | Orbital Elements | Mission Design | Physical Parameters | Discovery Circumstances ]
ABOUT SSD CREDITS/AWARDS PRIVACY/COPYRIGHT GLOSSARY LINKS
FirstGov 2021-Jun-15 11:14 UT
(server date/time)  
NASA Home Page
Site Manager:   Ryan S. Park
Webmaster  Alan B. Chamberlin